When you browse on this site, cookies collect data to enhance your experience and personalize the content and advertising you see.
Visit our Privacy Policy to learn more. By continuing to use the site, you agree to this use of cookies and data.
  • In Romania
  • List of Countries
  • For 7 days
  • Water Temperature
  • Weather Map
  • Weather Widgets
  • user-avatar
    Login

    Hourly Weather Lewis

    Today, 27 May, Wednesday

    Time Temperature Precipitation Wind Pressure Humidity
    00:00 +7°C° 0 mm 6 mps 767 mmHg 82%
    01:00 +7°C° 0 mm 6 mps 767 mmHg 84%
    02:00 +7°C° 0 mm 5 mps 766 mmHg 85%
    03:00 +7°C° 0 mm 5 mps 766 mmHg 86%
    04:00 +7°C° 0 mm 5 mps 767 mmHg 83%
    05:00 +8°C° 0 mm 5 mps 767 mmHg 80%
    06:00 +8°C° 0 mm 4 mps 767 mmHg 77%
    07:00 +10°C° 0 mm 4 mps 767 mmHg 73%
    08:00 +11°C° 0 mm 4 mps 767 mmHg 68%
    09:00 +11°C° 0 mm 4 mps 768 mmHg 64%
    10:00 +12°C° 0 mm 4 mps 767 mmHg 63%
    11:00 +12°C° 0 mm 4 mps 767 mmHg 61%
    12:00 +13°C° 0 mm 4 mps 767 mmHg 60%
    13:00 +13°C° 0 mm 4 mps 767 mmHg 60%
    14:00 +13°C° 0 mm 5 mps 767 mmHg 61%
    15:00 +13°C° 0 mm 5 mps 767 mmHg 61%
    16:00 +13°C° 0 mm 4 mps 767 mmHg 63%
    17:00 +12°C° 0 mm 4 mps 766 mmHg 65%
    18:00 +11°C° 0 mm 4 mps 766 mmHg 67%
    19:00 +11°C° 0.7 mm 4 mps 766 mmHg 74%
    20:00 +9°C° 0.7 mm 5 mps 765 mmHg 82%
    21:00 +8°C° 0.7 mm 5 mps 765 mmHg 90%
    22:00 +8°C° 0.6 mm 6 mps 765 mmHg 91%
    23:00 +8°C° 0.6 mm 7 mps 764 mmHg 92%

    Tomorrow, 28 May, Thursday

    Time Temperature Precipitation Wind Pressure Humidity
    00:00 +9°C° 0.6 mm 7 mps 764 mmHg 93%
    01:00 +9°C° 0.3 mm 7 mps 763 mmHg 94%
    02:00 +10°C° 0.3 mm 7 mps 763 mmHg 95%
    03:00 +10°C° 0.3 mm 7 mps 763 mmHg 96%
    04:00 +10°C° 0 mm 6 mps 763 mmHg 95%
    05:00 +11°C° 0 mm 6 mps 763 mmHg 94%
    06:00 +11°C° 0 mm 6 mps 763 mmHg 94%
    07:00 +13°C° 0 mm 6 mps 763 mmHg 92%
    08:00 +13°C° 0 mm 5 mps 763 mmHg 90%
    09:00 +14°C° 0 mm 5 mps 763 mmHg 87%
    10:00 +14°C° 0 mm 5 mps 763 mmHg 86%
    11:00 +15°C° 0 mm 5 mps 764 mmHg 84%
    12:00 +15°C° 0 mm 5 mps 764 mmHg 83%
    13:00 +16°C° 0 mm 5 mps 763 mmHg 80%
    14:00 +16°C° 0 mm 5 mps 763 mmHg 77%
    15:00 +18°C° 0 mm 4 mps 763 mmHg 75%
    16:00 +18°C° 0 mm 4 mps 763 mmHg 74%
    17:00 +18°C° 0 mm 3 mps 762 mmHg 73%
    18:00 +18°C° 0 mm 3 mps 762 mmHg 73%
    19:00 +17°C° 0 mm 3 mps 762 mmHg 77%
    20:00 +14°C° 0 mm 3 mps 762 mmHg 82%
    21:00 +13°C° 0 mm 3 mps 761 mmHg 87%
    22:00 +13°C° 0 mm 3 mps 761 mmHg 88%
    23:00 +13°C° 0 mm 3 mps 761 mmHg 89%

    Day after tomorrow, 29 May, Friday

    Time Temperature Precipitation Wind Pressure Humidity
    00:00 +13°C° 0 mm 3 mps 761 mmHg 90%
    01:00 +13°C° 0 mm 3 mps 760 mmHg 91%
    02:00 +13°C° 0 mm 4 mps 760 mmHg 91%
    03:00 +13°C° 0 mm 4 mps 760 mmHg 91%
    04:00 +13°C° 0 mm 4 mps 760 mmHg 86%
    05:00 +14°C° 0 mm 5 mps 759 mmHg 82%
    06:00 +14°C° 0 mm 5 mps 759 mmHg 78%
    07:00 +15°C° 0 mm 5 mps 759 mmHg 75%
    08:00 +16°C° 0 mm 5 mps 759 mmHg 73%
    09:00 +17°C° 0 mm 6 mps 759 mmHg 70%
    10:00 +19°C° 0 mm 6 mps 759 mmHg 67%
    11:00 +20°C° 0 mm 6 mps 759 mmHg 65%
    12:00 +20°C° 0 mm 6 mps 759 mmHg 63%
    13:00 +20°C° 0 mm 6 mps 758 mmHg 60%
    14:00 +20°C° 0 mm 7 mps 758 mmHg 57%
    15:00 +20°C° 0 mm 7 mps 758 mmHg 55%
    16:00 +20°C° 0 mm 6 mps 758 mmHg 54%
    17:00 +19°C° 0 mm 6 mps 757 mmHg 52%
    18:00 +17°C° 0 mm 6 mps 757 mmHg 51%
    19:00 +16°C° 0 mm 6 mps 757 mmHg 54%
    20:00 +15°C° 0 mm 5 mps 757 mmHg 56%
    21:00 +14°C° 0 mm 5 mps 757 mmHg 59%
    22:00 +14°C° 0 mm 5 mps 757 mmHg 60%
    23:00 +13°C° 0 mm 5 mps 757 mmHg 62%

    30 May, Saturday

    Time Temperature Precipitation Wind Pressure Humidity
    00:00 +13°C° 0 mm 5 mps 757 mmHg 63%
    01:00 +13°C° 0 mm 5 mps 757 mmHg 65%
    02:00 +12°C° 0 mm 4 mps 757 mmHg 67%
    03:00 +12°C° 0 mm 4 mps 757 mmHg 69%
    04:00 +13°C° 0 mm 4 mps 757 mmHg 70%
    05:00 +13°C° 0 mm 4 mps 758 mmHg 71%
    06:00 +14°C° 0 mm 4 mps 758 mmHg 71%
    07:00 +15°C° 0 mm 4 mps 758 mmHg 68%
    08:00 +17°C° 0 mm 4 mps 758 mmHg 65%
    09:00 +17°C° 0 mm 5 mps 758 mmHg 62%
    10:00 +19°C° 0 mm 5 mps 758 mmHg 61%
    11:00 +20°C° 0 mm 5 mps 758 mmHg 60%
    12:00 +20°C° 0 mm 5 mps 758 mmHg 59%
    13:00 +20°C° 0 mm 5 mps 758 mmHg 58%
    14:00 +21°C° 0 mm 5 mps 757 mmHg 57%
    15:00 +21°C° 0 mm 5 mps 757 mmHg 57%
    16:00 +20°C° 0 mm 4 mps 757 mmHg 59%
    17:00 +19°C° 0 mm 3 mps 757 mmHg 61%
    18:00 +18°C° 0 mm 3 mps 757 mmHg 64%
    19:00 +17°C° 0 mm 2 mps 757 mmHg 68%
    20:00 +16°C° 0 mm 2 mps 757 mmHg 73%
    21:00 +15°C° 0 mm 2 mps 757 mmHg 77%
    22:00 +15°C° 0 mm 2 mps 757 mmHg 79%
    23:00 +14°C° 0 mm 2 mps 757 mmHg 80%

    31 May, Sunday

    Time Temperature Precipitation Wind Pressure Humidity
    00:00 +13°C° 0 mm 2 mps 757 mmHg 82%
    01:00 +13°C° 0 mm 2 mps 757 mmHg 82%
    02:00 +12°C° 0 mm 3 mps 757 mmHg 82%
    03:00 +11°C° 0 mm 3 mps 757 mmHg 82%
    04:00 +13°C° 0 mm 2 mps 757 mmHg 79%
    05:00 +14°C° 0 mm 2 mps 757 mmHg 76%
    06:00 +14°C° 0 mm 2 mps 757 mmHg 72%
    07:00 +15°C° 0 mm 2 mps 757 mmHg 68%
    08:00 +16°C° 0 mm 2 mps 757 mmHg 65%
    09:00 +17°C° 0 mm 2 mps 757 mmHg 61%
    10:00 +17°C° 0 mm 3 mps 757 mmHg 60%
    11:00 +18°C° 0 mm 3 mps 757 mmHg 59%
    12:00 +19°C° 0 mm 3 mps 757 mmHg 58%
    13:00 +19°C° 0 mm 3 mps 756 mmHg 58%
    14:00 +19°C° 0 mm 4 mps 756 mmHg 58%
    15:00 +19°C° 0 mm 4 mps 756 mmHg 58%
    16:00 +18°C° 0 mm 3 mps 756 mmHg 60%
    17:00 +18°C° 0 mm 3 mps 755 mmHg 62%
    18:00 +18°C° 0 mm 3 mps 755 mmHg 64%
    19:00 +17°C° 0 mm 3 mps 755 mmHg 70%
    20:00 +14°C° 0 mm 3 mps 755 mmHg 77%
    21:00 +14°C° 0 mm 2 mps 755 mmHg 84%
    22:00 +12°C° 0 mm 3 mps 755 mmHg 84%
    23:00 +12°C° 0 mm 3 mps 754 mmHg 84%

    1 June, Monday

    Time Temperature Precipitation Wind Pressure Humidity
    00:00 +12°C° 0 mm 3 mps 754 mmHg 85%
    01:00 +12°C° 0 mm 3 mps 754 mmHg 86%
    02:00 +12°C° 0 mm 4 mps 753 mmHg 86%
    03:00 +12°C° 0 mm 4 mps 753 mmHg 87%
    04:00 +12°C° 0.3 mm 4 mps 753 mmHg 86%
    05:00 +13°C° 0.3 mm 4 mps 753 mmHg 85%
    06:00 +13°C° 0.3 mm 5 mps 753 mmHg 83%
    07:00 +14°C° 0 mm 5 mps 753 mmHg 78%
    08:00 +15°C° 0 mm 5 mps 753 mmHg 73%
    09:00 +16°C° 0 mm 5 mps 753 mmHg 67%
    10:00 +16°C° 0 mm 5 mps 753 mmHg 66%
    11:00 +17°C° 0 mm 5 mps 753 mmHg 64%
    12:00 +17°C° 0 mm 5 mps 754 mmHg 62%
    13:00 +18°C° 0 mm 4 mps 754 mmHg 62%
    14:00 +18°C° 0 mm 4 mps 754 mmHg 62%
    15:00 +19°C° 0 mm 3 mps 754 mmHg 62%
    16:00 +18°C° 0 mm 3 mps 754 mmHg 64%
    17:00 +18°C° 0 mm 2 mps 754 mmHg 67%
    18:00 +18°C° 0 mm 1 mps 754 mmHg 70%
    19:00 +16°C° 0 mm 2 mps 754 mmHg 73%
    20:00 +15°C° 0 mm 2 mps 755 mmHg 77%
    21:00 +14°C° 0 mm 2 mps 755 mmHg 81%
    22:00 +14°C° 0 mm 2 mps 755 mmHg 80%
    23:00 +14°C° 0 mm 2 mps 755 mmHg 80%
    Show more